カタログに戻る

COSMOS 886 DEB

運用中LEO
NORAD 9823·DEBRIS·🇷🇺 Russia

打ち上げ Dec 27, 1976 から Baikonur Cosmodrome

Loading…

次のパス (今後24時間)

TLE

最新Source: Space-Track

元期: Sep 14, 2026, 09:49 UTC

1 09823U 76126AK  26257.40928485  .00000576  00000-0  28152-3 0  9995
2 09823  65.7983 310.4790 0910399 340.9676  15.9276 13.00549807326673

AllMySatでCOSMOS 886 DEBをリアルタイム追跡

Download on the App Store